Weather Roundup
Issued by NWS Chicago, IL

Home | Current Version | Previous Version | Text Only | Print | Product List | Glossary On
Versions: 1 2 3 4 5 6 7 8 9 10 11 12 13 14 15 16 17 18 19 20 21 22 23 24 25 26 27 28 29 30 31 32 33 34 35 36 37 38 39 40 41 42 43 44 45 46 47 48 49 50
877
NZUS59 KLOT 191608
HRRLOT

CHICAGO AREA WEATHER ROUNDUP
NATIONAL WEATHER SERVICE CHICAGO/ROMEOVILLE IL
1100 AM CDT THU APR 19 2018

NOTE: "FAIR" INDICATES FEW OR NO CLOUDS BELOW 12,000 FEET WITH NO
SIGNIFICANT WEATHER AND/OR OBSTRUCTIONS TO VISIBILITY.

* THESE STATIONS ARE NOT UNDER NWS QUALITY CONTROL. THEY ALSO MAY NOT
  REPORT WEATHER SUCH AS PRECIPITATION OR FOG.

ILZ005-006-012>014-019>023-191700-
NORTHEAST ILLINOIS

CITY           SKY/WX    TMP DP  RH WIND       PRES   REMARKS
OHARE            N/A     45  27  49 N13       30.32R
MIDWAY           N/A     46  27  47 N12       30.32R
AURORA           N/A     41  33  73 N12       30.34R
LANSING*         N/A     42  33  69 N10G18    30.32R
JOLIET*          N/A     44  32  63 N6        30.34R
WAUKEGAN         N/A     41  28  60 N9        30.32R
DUPAGE AIRPORT   N/A     43  31  62 N10       30.33R
WHEELING         N/A     45  29  53 N10       30.34R
KANKAKEE*        N/A     45  33  63 N14       30.33R
MORRIS*          N/A     41  34  76 N8        30.34R
LEWIS AIRPORT*   N/A     43  33  67 N10       30.33R
NORTHERLY ISL    N/A     42  31  65 N13         N/A
$$

WIZ051-052-058>065-066-070>072-191700-
SOUTHEAST WISCONSIN

CITY           SKY/WX    TMP DP  RH WIND       PRES   REMARKS
MILWAUKEE        N/A     41  24  51 NW12      30.33R
KENOSHA*         N/A     40  26  57 NW8       30.33R
RACINE*          N/A     40  23  50 N14       30.34R
BURLINGTON       N/A     38  23  53 NW8       30.34R
WAUKESHA       SUNNY     36  21  55 NW10      30.34R
WEST BEND        N/A     37  25  60 NW9       30.32R
$$

INZ001>003-010>013-019-020-191700-
NORTHWEST INDIANA

CITY           SKY/WX    TMP DP  RH WIND       PRES   REMARKS
GARY*          MOSUNNY   43  32  65 NW12G23   30.30S
MICHIGAN CITY* NOT AVBL
RENSSELAER*    NOT AVBL
VALPARAISO       N/A     45  33  63 N14G21    30.29R
$$

LMZ740>746-191700-
SOUTHERN LAKE MICHIGAN

STATION/POSITION TIME  SKY/WX   TEMP WIND        PRES    VSBY
                                AIR  DIR/SP/G
                 (UTC)          (F)  (DEG/KT/KT) (MB)    (MI)
HARRISON CRIB    1540            38  340/ 16/ 18   N/A
BURNHAM HARBOR   1600            42  350/ 10/ 15   N/A
CALUMET HARBOR   1548            39  330/ 15/ 21 1026.3R
BURNS HARBOR     1516            38  350/ 15/ 20 1026.4R
MICHIGAN CITY    1540            38  330/ 21/ 24   N/A
$$

ABBREVIATIONS USED IN REMARKS
   TC - TEMPERATURE IN CELSIUS
  WCI - WIND CHILL INDEX
   HX - HEAT INDEX
  VSB - VISIBILITY
$$




USA.gov is the U.S. government's official web portal to all federal, state and local government web resources and services.